Location: Newark
(44.2003°N, 3.2583°E)
Time: 02:54:30
(UTC+00:00)

Explorer 7 - Pass Details

Date: 27 October 2019
Orbit: 485 x 680 km, 50.3° (Epoch: 22 November)

Event Time Altitude Azimuth Distance (km) Brightness Sun altitude
Rises 10:33:10 0° 274° (W) 2,570 10.1 31.5°
Reaches altitude 10° 10:35:29 10° 283° (WNW) 1,676 9.1 31.7°
Maximum altitude 10:38:57 34° 350° (N) 812 7.5 31.8°
Drops below altitude 10° 10:42:26 10° 58° (ENE) 1,672 9.2 32.0°
Sets 10:44:45 0° 68° (ENE) 2,564 10.2 32.1°
